ONEWEB-0139 (47285 NORAD) Tracking and Keplerian Element Data

This shows tracking and keplerian element data for the satellite.

Feedback or suggestion? Click here.




ElementValue
Catalog47285
NameONEWEB-0139
Epoch Orbit1708
Epoch Day106.25002315
Epoch Year2021
RAAN6.026
Inclination87.9381
Eccentricity0.0001155
Argument of Perigee81.494
Mean Anonmoly35.7427
Mean Motion13.2441827
Decay Rate1.3E-07
L11 47285U 20100AD 21106.25002315 .00000013 00000-0 00000+0 0 9990
L22 47285 87.9381 6.0260 0001155 81.4940 35.7427 13.24418270 17082

Live tracking and technical data element details for ONEWEB-0139 (NORAD 47285). ONEWEB-0139 can be tracked NOW for your location showing map with azimuth and elevation plus other details from your city location.

Track the satellite on the map from your city or location and see movement details for azimuth, elevation, latitude, longitude, range, height, and movement on the map or in text.







IsCatalogInMostPopularTable: catalog: 47285, numindb: 42
Update: records affected: 1



GetName: 47285 ONEWEB-0139

Hit Count: updated at: Fri, 16 Apr 2021 11:19:12 GMT